| time (UTC) | temp F | wind direction | speed MPH | gust MPH | rain 1hr in | rain 24hr in | rain mn in | humidity % | barometer mb |
| 20260906064520 | 71 | 95 | 3.0 | 7.0 | 0.00 | 0.00 | 0.00 | 90 | 1018.4 |
| 20260906064012 | 71 | 71 | 3.0 | 7.0 | 0.00 | 0.00 | 0.00 | 90 | 1018.5 |
| 20260906063511 | 71 | 56 | 3.0 | 9.0 | 0.00 | 0.00 | 0.00 | 90 | 1018.5 |
| 20260906063028 | 71 | 112 | 5.0 | 9.0 | 0.00 | 0.00 | 0.00 | 90 | 1018.5 |
| 20260906062513 | 71 | 75 | 6.0 | 8.0 | 0.00 | 0.00 | 0.00 | 90 | 1018.2 |
| 20260906062016 | 71 | 60 | 4.0 | 7.0 | 0.00 | 0.00 | 0.00 | 90 | 1018.3 |
| 20260906061530 | 71 | 65 | 4.0 | 10.0 | 0.00 | 0.00 | 0.00 | 90 | 1018.2 |
| 20260906061013 | 71 | 86 | 4.0 | 10.0 | 0.00 | 0.00 | 0.00 | 90 | 1018.2 |
| 20260906060518 | 71 | 64 | 4.0 | 9.0 | 0.00 | 0.00 | 0.00 | 90 | 1018.1 |
| 20260906060034 | 72 | 67 | 5.0 | 8.0 | 0.00 | 0.00 | 0.00 | 90 | 1018.1 |
| 20260906055507 | 72 | 83 | 4.0 | 8.0 | 0.00 | 0.00 | 0.00 | 90 | 1018.1 |
| 20260906055003 | 72 | 99 | 4.0 | 9.0 | 0.00 | 0.00 | 0.00 | 90 | 1018.0 |
| 20260906054522 | 72 | 82 | 6.0 | 10.0 | 0.00 | 0.00 | 0.00 | 90 | 1018.0 |
| 20260906054011 | 72 | 50 | 5.0 | 10.0 | 0.00 | 0.00 | 0.00 | 90 | 1018.0 |
| 20260906053508 | 72 | 55 | 6.0 | 10.0 | 0.00 | 0.00 | 0.00 | 90 | 1018.1 |
| 20260906053034 | 72 | 38 | 4.0 | 8.0 | 0.00 | 0.00 | 0.00 | 90 | 1018.0 |
| 20260906052512 | 72 | 76 | 3.0 | 8.0 | 0.00 | 0.00 | 0.00 | 90 | 1018.0 |
| 20260906052014 | 72 | 69 | 4.0 | 6.0 | 0.00 | 0.00 | 0.00 | 90 | 1018.2 |
| 20260906051530 | 73 | 58 | 3.0 | 6.0 | 0.00 | 0.00 | 0.00 | 89 | 1018.3 |
| 20260906051017 | 73 | 43 | 3.0 | 6.0 | 0.00 | 0.00 | 0.00 | 89 | 1018.3 |
| 20260906050516 | 73 | 55 | 3.0 | 6.0 | 0.00 | 0.00 | 0.00 | 89 | 1018.2 |
| 20260906050044 | 73 | 69 | 3.0 | 6.0 | 0.00 | 0.00 | 0.00 | 89 | 1018.1 |
| 20260906045517 | 73 | 49 | 3.0 | 7.0 | 0.00 | 0.00 | 0.00 | 89 | 1018.1 |
| 20260906045014 | 73 | 32 | 3.0 | 7.0 | 0.00 | 0.00 | 0.00 | 89 | 1018.0 |
| 20260906044536 | 73 | 37 | 3.0 | 6.0 | 0.00 | 0.00 | 0.00 | 89 | 1018.0 |
| 20260906044009 | 73 | 51 | 4.0 | 6.0 | 0.00 | 0.00 | 0.00 | 90 | 1018.0 |
| 20260906043505 | 72 | 16 | 2.0 | 4.0 | 0.00 | 0.00 | 0.00 | 91 | 1017.9 |
| 20260906043020 | 72 | 36 | 1.0 | 3.0 | 0.00 | 0.00 | 0.00 | 91 | 1017.9 |
| 20260906042507 | 72 | 61 | 1.0 | 3.0 | 0.00 | 0.00 | 0.00 | 91 | 1017.8 |
| 20260906042011 | 72 | 13 | 1.0 | 3.0 | 0.00 | 0.00 | 0.00 | 91 | 1017.8 |
| 20260906041531 | 72 | 37 | 1.0 | 2.0 | 0.00 | 0.00 | 0.00 | 91 | 1017.7 |
| 20260906041011 | 72 | 304 | 0.0 | 1.0 | 0.00 | 0.00 | 0.00 | 91 | 1017.7 |
| 20260906040515 | 72 | 304 | 1.0 | 1.0 | 0.00 | 0.00 | 0.00 | 91 | 1017.7 |
| 20260906040034 | 72 | 348 | 0.0 | 2.0 | 0.00 | 0.00 | 0.00 | 91 | 1017.5 |
| 20260906035514 | 72 | 342 | 1.0 | 2.0 | 0.00 | 0.00 | 0.00 | 91 | 1017.6 |
| 20260906035014 | 72 | 336 | 0.0 | 3.0 | 0.00 | 0.00 | 0.00 | 91 | 1017.6 |
| 20260906034535 | 72 | 302 | 1.0 | 3.0 | 0.00 | 0.00 | 0.00 | 90 | 1017.5 |
| 20260906034018 | 72 | 6 | 0.0 | 2.0 | 0.00 | 0.00 | 0.00 | 90 | 1017.4 |
| 20260906033517 | 72 | 10 | 1.0 | 2.0 | 0.00 | 0.00 | 0.00 | 90 | 1017.2 |
| 20260906033044 | 72 | 7 | 0.0 | 1.0 | 0.00 | 0.00 | 0.00 | 90 | 1017.2 |
| 20260906032518 | 72 | 7 | 0.0 | 1.0 | 0.00 | 0.00 | 0.00 | 90 | 1017.2 |
| 20260906032007 | 72 | 20 | 0.0 | 1.0 | 0.00 | 0.00 | 0.00 | 90 | 1017.3 |
| 20260906031527 | 72 | 20 | 0.0 | 2.0 | 0.00 | 0.00 | 0.00 | 90 | 1017.2 |
| 20260906031012 | 73 | 21 | 0.0 | 2.0 | 0.00 | 0.00 | 0.00 | 90 | 1017.0 |
| 20260906030510 | 73 | 15 | 0.0 | 1.0 | 0.00 | 0.00 | 0.00 | 90 | 1017.0 |
| 20260906030025 | 73 | 15 | 0.0 | 1.0 | 0.00 | 0.00 | 0.00 | 90 | 1017.1 |
| 20260906025512 | 73 | 105 | 0.0 | 0.0 | 0.00 | 0.00 | 0.00 | 90 | 1017.0 |
| 20260906025018 | 73 | 106 | 0.0 | 0.0 | 0.00 | 0.00 | 0.00 | 89 | 1017.0 |
| 20260906024532 | 73 | 106 | 0.0 | 1.0 | 0.00 | 0.00 | 0.00 | 89 | 1017.0 |
| 20260906024019 | 73 | 106 | 0.0 | 1.0 | 0.00 | 0.00 | 0.00 | 88 | 1016.8 |
| 20260906023516 | 73 | 106 | 0.0 | 1.0 | 0.00 | 0.00 | 0.00 | 88 | 1016.7 |
| 20260906023035 | 74 | 106 | 0.0 | 1.0 | 0.00 | 0.00 | 0.00 | 87 | 1016.6 |
| 20260906022503 | 74 | 108 | 0.0 | 1.0 | 0.00 | 0.00 | 0.00 | 87 | 1016.5 |
| 20260906022008 | 74 | 110 | 0.0 | 2.0 | 0.00 | 0.00 | 0.00 | 87 | 1016.4 |
| 20260906021520 | 74 | 110 | 0.0 | 2.0 | 0.00 | 0.00 | 0.00 | 87 | 1016.3 |
| 20260906021007 | 74 | 110 | 1.0 | 3.0 | 0.00 | 0.00 | 0.00 | 87 | 1016.2 |
| 20260906020512 | 74 | 97 | 0.0 | 3.0 | 0.00 | 0.00 | 0.00 | 87 | 1016.2 |
| 20260906020027 | 74 | 94 | 0.0 | 3.0 | 0.00 | 0.00 | 0.00 | 87 | 1016.1 |
| 20260906015511 | 74 | 96 | 1.0 | 5.0 | 0.00 | 0.00 | 0.00 | 87 | 1016.1 |
| 20260906015004 | 74 | 61 | 2.0 | 5.0 | 0.00 | 0.00 | 0.00 | 87 | 1016.0 |
| 20260906014506 | 74 | 90 | 2.0 | 5.0 | 0.00 | 0.00 | 0.00 | 87 | 1016.0 |
| 20260906014003 | 74 | 68 | 3.0 | 5.0 | 0.00 | 0.00 | 0.00 | 86 | 1015.9 |
| 20260906013503 | 74 | 60 | 3.0 | 5.0 | 0.00 | 0.00 | 0.00 | 86 | 1015.9 |
| 20260906013013 | 74 | 59 | 2.0 | 6.0 | 0.00 | 0.00 | 0.00 | 86 | 1015.9 |
| 20260906012507 | 74 | 79 | 1.0 | 8.0 | 0.00 | 0.00 | 0.00 | 86 | 1015.9 |
| 20260906012007 | 74 | 65 | 4.0 | 8.0 | 0.00 | 0.00 | 0.00 | 87 | 1015.9 |
| 20260906011514 | 75 | 78 | 2.0 | 6.0 | 0.00 | 0.00 | 0.00 | 87 | 1015.9 |
| 20260906011005 | 75 | 71 | 3.0 | 7.0 | 0.00 | 0.00 | 0.00 | 87 | 1016.0 |
| 20260906010509 | 75 | 60 | 3.0 | 7.0 | 0.00 | 0.00 | 0.00 | 87 | 1016.0 |
| 20260906010023 | 75 | 81 | 2.0 | 7.0 | 0.00 | 0.00 | 0.00 | 86 | 1016.0 |
| 20260906005509 | 75 | 99 | 3.0 | 7.0 | 0.00 | 0.00 | 0.00 | 86 | 1015.9 |
| 20260906005012 | 75 | 80 | 3.0 | 8.0 | 0.00 | 0.00 | 0.00 | 86 | 1015.9 |
| 20260906004527 | 76 | 101 | 3.0 | 8.0 | 0.00 | 0.00 | 0.00 | 85 | 1015.8 |
| 20260906004013 | 76 | 94 | 4.0 | 8.0 | 0.00 | 0.00 | 0.00 | 84 | 1015.8 |
| 20260906003515 | 76 | 65 | 5.0 | 11.0 | 0.00 | 0.00 | 0.00 | 84 | 1015.9 |
| 20260906003007 | 77 | 59 | 5.0 | 11.0 | 0.00 | 0.00 | 0.00 | 84 | 1015.9 |
| 20260906002505 | 77 | 55 | 4.0 | 9.0 | 0.00 | 0.00 | 0.00 | 83 | 1016.0 |
| 20260906002019 | 77 | 38 | 4.0 | 12.0 | 0.00 | 0.00 | 0.00 | 83 | 1016.1 |
| 20260906001508 | 78 | 53 | 6.0 | 12.0 | 0.00 | 0.00 | 0.00 | 82 | 1016.1 |
| 20260906001017 | 78 | 54 | 4.0 | 9.0 | 0.00 | 0.00 | 0.00 | 81 | 1016.1 |
| 20260906000507 | 78 | 39 | 5.0 | 9.0 | 0.00 | 0.00 | 0.00 | 81 | 1016.1 |
| 20260906000033 | 79 | 25 | 5.0 | 9.0 | 0.00 | 0.00 | 0.00 | 80 | 1016.0 |
| 20260905235507 | 79 | 44 | 4.0 | 11.0 | 0.00 | 0.00 | 0.00 | 79 | 1016.0 |
| 20260905235023 | 80 | 70 | 5.0 | 11.0 | 0.00 | 0.00 | 0.00 | 79 | 1015.9 |
| 20260905234534 | 80 | 60 | 5.0 | 11.0 | 0.00 | 0.00 | 0.00 | 78 | 1015.9 |
| 20260905234019 | 80 | 60 | 5.0 | 11.0 | 0.00 | 0.00 | 0.00 | 77 | 1015.9 |
| 20260905233511 | 80 | 56 | 4.0 | 8.0 | 0.00 | 0.00 | 0.00 | 77 | 1015.9 |
| 20260905233026 | 81 | 64 | 5.0 | 10.0 | 0.00 | 0.00 | 0.00 | 76 | 1015.8 |
| 20260905232514 | 81 | 55 | 6.0 | 10.0 | 0.00 | 0.00 | 0.00 | 76 | 1015.7 |
| 20260905232016 | 81 | 25 | 5.0 | 12.0 | 0.00 | 0.00 | 0.00 | 76 | 1015.7 |
| 20260905231508 | 81 | 75 | 7.0 | 12.0 | 0.00 | 0.00 | 0.00 | 76 | 1015.7 |
| 20260905231016 | 81 | 60 | 8.0 | 12.0 | 0.00 | 0.00 | 0.00 | 76 | 1015.7 |
| 20260905230506 | 81 | 60 | 4.0 | 10.0 | 0.00 | 0.00 | 0.00 | 77 | 1015.6 |
| 20260905230011 | 81 | 77 | 3.0 | 10.0 | 0.00 | 0.00 | 0.00 | 77 | 1015.6 |
| 20260905225508 | 81 | 78 | 5.0 | 11.0 | 0.00 | 0.00 | 0.00 | 76 | 1015.6 |
| 20260905225008 | 81 | 117 | 6.0 | 11.0 | 0.00 | 0.00 | 0.00 | 77 | 1015.6 |
| 20260905224552 | 81 | 89 | 6.0 | 9.0 | 0.00 | 0.00 | 0.00 | 77 | 1015.7 |
| 20260905224012 | 81 | 77 | 3.0 | 12.0 | 0.00 | 0.00 | 0.00 | 76 | 1015.8 |
| 20260905223510 | 81 | 54 | 5.0 | 12.0 | 0.00 | 0.00 | 0.00 | 75 | 1015.8 |
| 20260905223023 | 81 | 56 | 6.0 | 12.0 | 0.00 | 0.00 | 0.00 | 75 | 1015.9 |
| 20260905222512 | 81 | 56 | 7.0 | 12.0 | 0.00 | 0.00 | 0.00 | 76 | 1015.9 |
| 20260905222013 | 82 | 323 | 4.0 | 16.0 | 0.00 | 0.00 | 0.00 | 78 | 1015.8 |
| 20260905221544 | 82 | 56 | 5.0 | 16.0 | 0.00 | 0.00 | 0.00 | 77 | 1015.8 |
| 20260905221019 | 82 | 4 | 5.0 | 14.0 | 0.00 | 0.00 | 0.00 | 78 | 1015.8 |
| 20260905220519 | 82 | 65 | 5.0 | 14.0 | 0.00 | 0.00 | 0.00 | 78 | 1015.7 |
| 20260905220011 | 82 | 44 | 8.0 | 11.0 | 0.00 | 0.00 | 0.00 | 77 | 1015.6 |
| 20260905215505 | 82 | 64 | 5.0 | 12.0 | 0.00 | 0.00 | 0.00 | 78 | 1015.6 |
| 20260905215004 | 83 | 55 | 6.0 | 13.0 | 0.00 | 0.00 | 0.00 | 77 | 1015.6 |
| 20260905214516 | 83 | 53 | 7.0 | 13.0 | 0.00 | 0.00 | 0.00 | 77 | 1015.7 |
| 20260905214018 | 83 | 72 | 6.0 | 11.0 | 0.00 | 0.00 | 0.00 | 78 | 1015.6 |
| 20260905213508 | 82 | 54 | 5.0 | 11.0 | 0.00 | 0.00 | 0.00 | 79 | 1015.5 |
| 20260905213020 | 82 | 54 | 6.0 | 11.0 | 0.00 | 0.00 | 0.00 | 79 | 1015.6 |
| 20260905212510 | 83 | 322 | 7.0 | 11.0 | 0.00 | 0.00 | 0.00 | 78 | 1015.7 |
| 20260905212018 | 83 | 47 | 5.0 | 10.0 | 0.00 | 0.00 | 0.00 | 79 | 1015.8 |
| 20260905211525 | 83 | 89 | 4.0 | 10.0 | 0.00 | 0.00 | 0.00 | 78 | 1015.8 |
| 20260905211015 | 84 | 36 | 5.0 | 12.0 | 0.00 | 0.00 | 0.00 | 79 | 1015.7 |
| 20260905210519 | 84 | 65 | 6.0 | 14.0 | 0.00 | 0.00 | 0.00 | 78 | 1015.6 |
| 20260905210036 | 84 | 62 | 7.0 | 14.0 | 0.00 | 0.00 | 0.00 | 77 | 1015.5 |
| 20260905205520 | 85 | 66 | 7.0 | 14.0 | 0.00 | 0.00 | 0.00 | 76 | 1015.3 |
| 20260905205016 | 86 | 49 | 6.0 | 13.0 | 0.00 | 0.00 | 0.00 | 77 | 1015.2 |
| 20260905204534 | 86 | 58 | 7.0 | 13.0 | 0.00 | 0.00 | 0.00 | 77 | 1015.1 |
| 20260905204008 | 86 | 56 | 6.0 | 13.0 | 0.00 | 0.00 | 0.00 | 77 | 1015.1 |
| 20260905203506 | 86 | 63 | 5.0 | 13.0 | 0.00 | 0.00 | 0.00 | 78 | 1015.1 |
| 20260905203017 | 87 | 60 | 7.0 | 12.0 | 0.00 | 0.00 | 0.00 | 75 | 1015.3 |
| 20260905202509 | 87 | 72 | 6.0 | 12.0 | 0.00 | 0.00 | 0.00 | 77 | 1015.3 |
| 20260905202017 | 87 | 56 | 6.0 | 12.0 | 0.00 | 0.00 | 0.00 | 77 | 1015.3 |
| 20260905201524 | 88 | 48 | 7.0 | 12.0 | 0.00 | 0.00 | 0.00 | 74 | 1015.4 |
| 20260905201020 | 88 | 80 | 6.0 | 9.0 | 0.00 | 0.00 | 0.00 | 74 | 1015.4 |
| 20260905200518 | 88 | 354 | 5.0 | 9.0 | 0.00 | 0.00 | 0.00 | 72 | 1015.6 |
| 20260905200028 | 90 | 351 | 6.0 | 9.0 | 0.00 | 0.00 | 0.00 | 72 | 1015.6 |
| 20260905195512 | 89 | 58 | 2.0 | 6.0 | 0.00 | 0.00 | 0.00 | 73 | 1015.6 |
| 20260905195020 | 89 | 350 | 3.0 | 8.0 | 0.00 | 0.00 | 0.00 | 73 | 1015.6 |
| 20260905194534 | 89 | 84 | 4.0 | 8.0 | 0.00 | 0.00 | 0.00 | 71 | 1015.6 |
| 20260905194017 | 89 | 25 | 3.0 | 7.0 | 0.00 | 0.00 | 0.00 | 71 | 1015.6 |
| 20260905193520 | 89 | 27 | 4.0 | 7.0 | 0.00 | 0.00 | 0.00 | 71 | 1015.6 |
| 20260905193038 | 88 | 1 | 0.0 | 5.0 | 0.00 | 0.00 | 0.00 | 75 | 1015.6 |
| 20260905192517 | 88 | 352 | 3.0 | 7.0 | 0.00 | 0.00 | 0.00 | 73 | 1015.6 |
| 20260905192010 | 88 | 65 | 4.0 | 7.0 | 0.00 | 0.00 | 0.00 | 72 | 1015.6 |
| 20260905191519 | 89 | 41 | 5.0 | 7.0 | 0.00 | 0.00 | 0.00 | 71 | 1015.6 |
| 20260905191010 | 89 | 53 | 4.0 | 8.0 | 0.00 | 0.00 | 0.00 | 74 | 1015.6 |
| 20260905190520 | 89 | 84 | 3.0 | 8.0 | 0.00 | 0.00 | 0.00 | 73 | 1015.6 |
| 20260905190027 | 89 | 55 | 4.0 | 6.0 | 0.00 | 0.00 | 0.00 | 73 | 1015.7 |
| 20260905185515 | 89 | 51 | 2.0 | 9.0 | 0.00 | 0.00 | 0.00 | 74 | 1015.7 |
| 20260905185014 | 88 | 46 | 3.0 | 9.0 | 0.00 | 0.00 | 0.00 | 72 | 1015.8 |
| 20260905184533 | 88 | 30 | 2.0 | 7.0 | 0.00 | 0.00 | 0.00 | 72 | 1015.8 |
| 20260905184017 | 88 | 52 | 3.0 | 8.0 | 0.00 | 0.00 | 0.00 | 71 | 1015.7 |
| 20260905183516 | 89 | 54 | 5.0 | 8.0 | 0.00 | 0.00 | 0.00 | 70 | 1015.8 |
| 20260905183033 | 89 | 60 | 2.0 | 7.0 | 0.00 | 0.00 | 0.00 | 72 | 1015.8 |
| 20260905182518 | 88 | 89 | 4.0 | 6.0 | 0.00 | 0.00 | 0.00 | 72 | 1015.8 |
| 20260905182017 | 88 | 20 | 3.0 | 8.0 | 0.00 | 0.00 | 0.00 | 73 | 1015.7 |
| 20260905181545 | 88 | 33 | 5.0 | 8.0 | 0.00 | 0.00 | 0.00 | 73 | 1015.6 |
| 20260905181007 | 88 | 354 | 3.0 | 7.0 | 0.00 | 0.00 | 0.00 | 72 | 1015.6 |
| 20260905180510 | 87 | 91 | 2.0 | 7.0 | 0.00 | 0.00 | 0.00 | 75 | 1015.7 |
| 20260905180024 | 87 | 58 | 5.0 | 8.0 | 0.00 | 0.00 | 0.00 | 74 | 1015.7 |
| 20260905175512 | 88 | 49 | 6.0 | 7.0 | 0.00 | 0.00 | 0.00 | 74 | 1015.8 |
| 20260905175010 | 88 | 86 | 4.0 | 7.0 | 0.00 | 0.00 | 0.00 | 73 | 1015.8 |
| 20260905174535 | 88 | 10 | 4.0 | 7.0 | 0.00 | 0.00 | 0.00 | 72 | 1015.7 |
| 20260905174020 | 88 | 43 | 3.0 | 7.0 | 0.00 | 0.00 | 0.00 | 72 | 1015.7 |
| 20260905173517 | 87 | 45 | 4.0 | 9.0 | 0.00 | 0.00 | 0.00 | 74 | 1015.9 |
| 20260905173035 | 87 | 73 | 4.0 | 9.0 | 0.00 | 0.00 | 0.00 | 73 | 1016.0 |
| 20260905172514 | 87 | 349 | 4.0 | 8.0 | 0.00 | 0.00 | 0.00 | 73 | 1016.0 |
| 20260905172017 | 88 | 54 | 3.0 | 6.0 | 0.00 | 0.00 | 0.00 | 73 | 1016.1 |
| 20260905171540 | 87 | 44 | 4.0 | 9.0 | 0.00 | 0.00 | 0.00 | 73 | 1016.1 |
| 20260905171015 | 87 | 44 | 4.0 | 9.0 | 0.00 | 0.00 | 0.00 | 73 | 1016.2 |
| 20260905170516 | 88 | 34 | 6.0 | 9.0 | 0.00 | 0.00 | 0.00 | 72 | 1016.2 |
| 20260905170032 | 88 | 65 | 4.0 | 9.0 | 0.00 | 0.00 | 0.00 | 73 | 1016.3 |
| 20260905165513 | 88 | 113 | 5.0 | 9.0 | 0.00 | 0.00 | 0.00 | 75 | 1016.3 |
| 20260905165012 | 87 | 77 | 5.0 | 8.0 | 0.00 | 0.00 | 0.00 | 74 | 1016.3 |
| 20260905164530 | 87 | 36 | 6.0 | 8.0 | 0.00 | 0.00 | 0.00 | 73 | 1016.3 |
| 20260905164018 | 87 | 103 | 3.0 | 10.0 | 0.00 | 0.00 | 0.00 | 74 | 1016.3 |
| 20260905163512 | 87 | 352 | 5.0 | 10.0 | 0.00 | 0.00 | 0.00 | 72 | 1016.3 |
| 20260905163034 | 88 | 30 | 5.0 | 9.0 | 0.00 | 0.00 | 0.00 | 73 | 1016.2 |
| 20260905162521 | 87 | 59 | 4.0 | 9.0 | 0.00 | 0.00 | 0.00 | 73 | 1016.2 |
| 20260905162014 | 87 | 327 | 5.0 | 9.0 | 0.00 | 0.00 | 0.00 | 73 | 1016.2 |
| 20260905161532 | 87 | 38 | 5.0 | 10.0 | 0.00 | 0.00 | 0.00 | 74 | 1016.2 |
| 20260905161015 | 87 | 39 | 5.0 | 10.0 | 0.00 | 0.00 | 0.00 | 74 | 1016.2 |
| 20260905160516 | 87 | 74 | 5.0 | 10.0 | 0.00 | 0.00 | 0.00 | 74 | 1016.1 |
| 20260905160057 | 87 | 327 | 5.0 | 10.0 | 0.00 | 0.00 | 0.00 | 73 | 1016.1 |
| 20260905155519 | 87 | 55 | 5.0 | 8.0 | 0.00 | 0.00 | 0.00 | 75 | 1016.1 |
| 20260905155020 | 86 | 91 | 5.0 | 8.0 | 0.00 | 0.00 | 0.00 | 75 | 1016.0 |
| 20260905154540 | 86 | 49 | 4.0 | 9.0 | 0.00 | 0.00 | 0.00 | 75 | 1015.9 |
| 20260905154018 | 86 | 61 | 5.0 | 9.0 | 0.00 | 0.00 | 0.00 | 76 | 1016.0 |
| 20260905153510 | 85 | 50 | 3.0 | 10.0 | 0.00 | 0.00 | 0.00 | 76 | 1016.0 |
| 20260905153027 | 85 | 29 | 5.0 | 9.0 | 0.00 | 0.00 | 0.00 | 75 | 1016.0 |
| 20260905152516 | 85 | 51 | 6.0 | 9.0 | 0.00 | 0.00 | 0.00 | 75 | 1016.0 |
| 20260905152018 | 85 | 40 | 5.0 | 8.0 | 0.00 | 0.00 | 0.00 | 75 | 1016.0 |
| 20260905151535 | 85 | 83 | 5.0 | 8.0 | 0.00 | 0.00 | 0.00 | 74 | 1016.0 |
| 20260905151019 | 85 | 55 | 4.0 | 10.0 | 0.00 | 0.00 | 0.00 | 77 | 1016.0 |
| 20260905150514 | 85 | 56 | 6.0 | 10.0 | 0.00 | 0.00 | 0.00 | 76 | 1015.9 |
| 20260905150033 | 84 | 44 | 6.0 | 10.0 | 0.00 | 0.00 | 0.00 | 75 | 1015.9 |
| 20260905145517 | 85 | 56 | 6.0 | 9.0 | 0.00 | 0.00 | 0.00 | 74 | 1015.8 |
| 20260905145022 | 84 | 61 | 5.0 | 8.0 | 0.00 | 0.00 | 0.00 | 76 | 1015.7 |
| 20260905144540 | 84 | 8 | 4.0 | 7.0 | 0.00 | 0.00 | 0.00 | 78 | 1015.6 |
| 20260905144018 | 84 | 29 | 3.0 | 6.0 | 0.00 | 0.00 | 0.00 | 78 | 1015.5 |
| 20260905143515 | 83 | 44 | 4.0 | 7.0 | 0.00 | 0.00 | 0.00 | 78 | 1015.6 |
| 20260905143032 | 83 | 58 | 4.0 | 7.0 | 0.00 | 0.00 | 0.00 | 79 | 1015.4 |
| 20260905142509 | 83 | 63 | 2.0 | 6.0 | 0.00 | 0.00 | 0.00 | 83 | 1015.3 |
| 20260905142010 | 82 | 64 | 3.0 | 6.0 | 0.00 | 0.00 | 0.00 | 84 | 1015.3 |
| 20260905141542 | 82 | 63 | 4.0 | 6.0 | 0.00 | 0.00 | 0.00 | 84 | 1015.2 |
| 20260905141019 | 82 | 46 | 3.0 | 6.0 | 0.00 | 0.00 | 0.00 | 85 | 1015.2 |
| 20260905140504 | 81 | 64 | 2.0 | 5.0 | 0.00 | 0.00 | 0.00 | 85 | 1015.2 |
| 20260905140008 | 81 | 60 | 3.0 | 5.0 | 0.00 | 0.00 | 0.00 | 85 | 1015.2 |
| 20260905135504 | 81 | 356 | 2.0 | 5.0 | 0.00 | 0.00 | 0.00 | 86 | 1015.2 |
| 20260905135004 | 80 | 56 | 3.0 | 5.0 | 0.00 | 0.00 | 0.00 | 85 | 1015.1 |
| 20260905134512 | 80 | 68 | 2.0 | 4.0 | 0.00 | 0.00 | 0.00 | 87 | 1015.1 |
| 20260905134021 | 80 | 62 | 1.0 | 4.0 | 0.00 | 0.00 | 0.00 | 87 | 1015.1 |
| 20260905133517 | 79 | 61 | 1.0 | 4.0 | 0.00 | 0.00 | 0.00 | 89 | 1015.0 |
| 20260905133040 | 78 | 70 | 2.0 | 4.0 | 0.00 | 0.00 | 0.00 | 89 | 1015.0 |
| 20260905132519 | 78 | 57 | 2.0 | 4.0 | 0.00 | 0.00 | 0.00 | 90 | 1015.1 |
| 20260905132020 | 77 | 46 | 2.0 | 4.0 | 0.00 | 0.00 | 0.00 | 91 | 1015.0 |
| 20260905131523 | 77 | 359 | 3.0 | 4.0 | 0.00 | 0.00 | 0.00 | 91 | 1015.0 |
| 20260905131016 | 77 | 49 | 1.0 | 3.0 | 0.00 | 0.00 | 0.00 | 92 | 1015.0 |
| 20260905130513 | 76 | 63 | 1.0 | 3.0 | 0.00 | 0.00 | 0.00 | 93 | 1014.9 |
| 20260905130035 | 76 | 359 | 1.0 | 3.0 | 0.00 | 0.00 | 0.00 | 93 | 1015.0 |
| 20260905125517 | 76 | 18 | 2.0 | 3.0 | 0.00 | 0.00 | 0.00 | 93 | 1015.0 |
| 20260905125018 | 75 | 45 | 1.0 | 2.0 | 0.00 | 0.00 | 0.00 | 93 | 1014.9 |
| 20260905124510 | 75 | 16 | 1.0 | 2.0 | 0.00 | 0.00 | 0.00 | 94 | 1014.9 |
| 20260905124005 | 75 | 341 | 0.0 | 1.0 | 0.00 | 0.00 | 0.00 | 94 | 1014.9 |
| 20260905123515 | 74 | 339 | 0.0 | 2.0 | 0.00 | 0.00 | 0.00 | 94 | 1014.8 |
| 20260905123031 | 73 | 19 | 1.0 | 2.0 | 0.00 | 0.00 | 0.00 | 94 | 1014.7 |
| 20260905122510 | 73 | 5 | 0.0 | 2.0 | 0.00 | 0.00 | 0.00 | 94 | 1014.6 |
| 20260905122009 | 73 | 5 | 0.0 | 3.0 | 0.00 | 0.00 | 0.00 | 93 | 1014.6 |
| 20260905121524 | 73 | 1 | 2.0 | 3.0 | 0.00 | 0.00 | 0.00 | 94 | 1014.4 |
| 20260905121011 | 73 | 236 | 0.0 | 0.0 | 0.00 | 0.00 | 0.00 | 94 | 1014.3 |
| 20260905120514 | 72 | 236 | 0.0 | 0.0 | 0.00 | 0.00 | 0.00 | 94 | 1014.2 |
| 20260905120028 | 72 | 236 | 0.0 | 0.0 | 0.00 | 0.00 | 0.00 | 94 | 1014.4 |
| 20260905115515 | 71 | 236 | 0.0 | 0.0 | 0.00 | 0.00 | 0.00 | 93 | 1014.5 |
| 20260905115014 | 71 | 236 | 0.0 | 0.0 | 0.00 | 0.00 | 0.00 | 93 | 1014.3 |
| 20260905114535 | 72 | 236 | 0.0 | 0.0 | 0.00 | 0.00 | 0.00 | 93 | 1014.1 |
| 20260905114019 | 72 | 236 | 0.0 | 0.0 | 0.00 | 0.00 | 0.00 | 93 | 1013.8 |
| 20260905113515 | 72 | 236 | 0.0 | 0.0 | 0.00 | 0.00 | 0.00 | 94 | 1013.7 |
| 20260905113014 | 72 | 235 | 0.0 | 0.0 | 0.00 | 0.00 | 0.00 | 94 | 1013.7 |
| 20260905112503 | 73 | 235 | 0.0 | 0.0 | 0.00 | 0.00 | 0.00 | 94 | 1013.6 |
| 20260905112002 | 73 | 236 | 0.0 | 0.0 | 0.00 | 0.00 | 0.00 | 94 | 1013.5 |
| 20260905111506 | 73 | 236 | 0.0 | 0.0 | 0.00 | 0.00 | 0.00 | 94 | 1013.5 |
| 20260905111003 | 73 | 236 | 0.0 | 0.0 | 0.00 | 0.00 | 0.00 | 94 | 1013.5 |
| 20260905110503 | 73 | 235 | 0.0 | 0.0 | 0.00 | 0.00 | 0.00 | 94 | 1013.5 |
| 20260905110004 | 73 | 251 | 0.0 | 0.0 | 0.00 | 0.00 | 0.00 | 94 | 1013.5 |
| 20260905105504 | 72 | 251 | 0.0 | 0.0 | 0.00 | 0.00 | 0.00 | 94 | 1013.5 |
| 20260905105005 | 72 | 251 | 0.0 | 0.0 | 0.00 | 0.00 | 0.00 | 94 | 1013.6 |
| 20260905104507 | 72 | 251 | 0.0 | 0.0 | 0.00 | 0.00 | 0.00 | 93 | 1013.5 |
| 20260905104003 | 72 | 251 | 0.0 | 0.0 | 0.00 | 0.00 | 0.00 | 93 | 1013.4 |
| 20260905103505 | 73 | 251 | 0.0 | 0.0 | 0.00 | 0.00 | 0.00 | 93 | 1013.4 |
| 20260905103018 | 73 | 251 | 0.0 | 0.0 | 0.00 | 0.00 | 0.00 | 94 | 1013.5 |
| 20260905102503 | 73 | 251 | 0.0 | 0.0 | 0.00 | 0.00 | 0.00 | 94 | 1013.5 |
| 20260905102003 | 73 | 251 | 0.0 | 0.0 | 0.00 | 0.00 | 0.00 | 93 | 1013.5 |
| 20260905101512 | 73 | 251 | 0.0 | 0.0 | 0.00 | 0.00 | 0.00 | 93 | 1013.6 |
| 20260905101003 | 73 | 251 | 0.0 | 0.0 | 0.00 | 0.00 | 0.00 | 94 | 1013.6 |
| 20260905100507 | 73 | 251 | 0.0 | 0.0 | 0.00 | 0.00 | 0.00 | 94 | 1013.7 |
| 20260905100017 | 73 | 251 | 0.0 | 0.0 | 0.00 | 0.00 | 0.00 | 93 | 1013.7 |
| 20260905095503 | 73 | 251 | 0.0 | 1.0 | 0.00 | 0.00 | 0.00 | 93 | 1013.8 |
| 20260905095002 | 73 | 251 | 0.0 | 1.0 | 0.00 | 0.00 | 0.00 | 93 | 1013.9 |
| 20260905094508 | 73 | 285 | 0.0 | 1.0 | 0.00 | 0.00 | 0.00 | 93 | 1013.8 |
| 20260905094003 | 73 | 345 | 0.0 | 0.0 | 0.00 | 0.00 | 0.00 | 93 | 1013.9 |
| 20260905093503 | 73 | 345 | 0.0 | 0.0 | 0.00 | 0.00 | 0.00 | 93 | 1013.8 |
| 20260905093016 | 73 | 345 | 0.0 | 0.0 | 0.00 | 0.00 | 0.00 | 93 | 1013.9 |
| 20260905092503 | 73 | 345 | 0.0 | 1.0 | 0.00 | 0.00 | 0.00 | 93 | 1014.0 |
| 20260905092004 | 73 | 345 | 0.0 | 3.0 | 0.00 | 0.00 | 0.00 | 93 | 1014.0 |
| 20260905091529 | 73 | 359 | 1.0 | 3.0 | 0.00 | 0.00 | 0.00 | 93 | 1014.0 |
| 20260905091002 | 73 | 351 | 1.0 | 2.0 | 0.00 | 0.00 | 0.00 | 93 | 1013.9 |
| 20260905090505 | 73 | 354 | 1.0 | 1.0 | 0.00 | 0.00 | 0.00 | 93 | 1013.9 |
| 20260905090015 | 73 | 354 | 0.0 | 2.0 | 0.00 | 0.00 | 0.00 | 93 | 1013.9 |
| 20260905085508 | 74 | 353 | 1.0 | 2.0 | 0.00 | 0.00 | 0.00 | 93 | 1013.9 |
| 20260905085007 | 74 | 308 | 0.0 | 1.0 | 0.00 | 0.00 | 0.00 | 93 | 1013.9 |
| 20260905084517 | 74 | 307 | 0.0 | 0.0 | 0.00 | 0.00 | 0.00 | 93 | 1013.9 |
| 20260905084003 | 74 | 307 | 0.0 | 0.0 | 0.00 | 0.00 | 0.00 | 93 | 1013.9 |
| 20260905083503 | 74 | 307 | 0.0 | 1.0 | 0.00 | 0.00 | 0.00 | 93 | 1014.0 |
| 20260905083004 | 73 | 307 | 0.0 | 2.0 | 0.00 | 0.00 | 0.00 | 93 | 1014.0 |
| 20260905082503 | 73 | 350 | 0.0 | 2.0 | 0.00 | 0.00 | 0.00 | 92 | 1014.1 |
| 20260905082004 | 74 | 15 | 1.0 | 2.0 | 0.00 | 0.00 | 0.00 | 93 | 1014.1 |
| 20260905081510 | 74 | 220 | 0.0 | 1.0 | 0.00 | 0.00 | 0.00 | 93 | 1014.0 |
| 20260905081004 | 74 | 220 | 0.0 | 0.0 | 0.00 | 0.00 | 0.00 | 93 | 1014.1 |
| 20260905080504 | 74 | 220 | 0.0 | 0.0 | 0.00 | 0.00 | 0.00 | 93 | 1014.2 |
| 20260905080014 | 74 | 220 | 0.0 | 0.0 | 0.00 | 0.00 | 0.00 | 93 | 1014.2 |
| 20260905075509 | 74 | 220 | 0.0 | 1.0 | 0.00 | 0.00 | 0.00 | 93 | 1014.2 |
| 20260905075009 | 74 | 220 | 0.0 | 1.0 | 0.00 | 0.00 | 0.00 | 93 | 1014.2 |
| 20260905074521 | 74 | 221 | 0.0 | 0.0 | 0.00 | 0.00 | 0.00 | 93 | 1014.2 |
| 20260905074008 | 74 | 221 | 0.0 | 0.0 | 0.00 | 0.00 | 0.00 | 93 | 1014.2 |
| 20260905073508 | 74 | 220 | 0.0 | 1.0 | 0.00 | 0.00 | 0.00 | 92 | 1014.2 |
| 20260905073018 | 74 | 221 | 0.0 | 2.0 | 0.00 | 0.00 | 0.00 | 92 | 1014.2 |
| 20260905072510 | 74 | 221 | 1.0 | 2.0 | 0.00 | 0.00 | 0.00 | 92 | 1014.2 |
| 20260905072002 | 75 | 217 | 0.0 | 0.0 | 0.00 | 0.00 | 0.00 | 92 | 1014.1 |
| 20260905071508 | 75 | 217 | 0.0 | 0.0 | 0.00 | 0.00 | 0.00 | 92 | 1014.1 |
| 20260905071005 | 75 | 217 | 0.0 | 0.0 | 0.00 | 0.00 | 0.00 | 92 | 1014.1 |
| 20260905070504 | 75 | 217 | 0.0 | 0.0 | 0.00 | 0.00 | 0.00 | 92 | 1014.1 |
| 20260905070021 | 75 | 217 | 0.0 | 0.0 | 0.00 | 0.00 | 0.00 | 92 | 1014.2 |
| 20260905065508 | 76 | 217 | 0.0 | 0.0 | 0.00 | 0.00 | 0.00 | 92 | 1014.3 |
| 20260905065007 | 76 | 218 | 0.0 | 0.0 | 0.00 | 0.00 | 0.00 | 92 | 1014.2 |